Vertical_Velocity
1 -3 -1 -2 -0 -0 -0 2 3 5 3 4 1 -1 -1 -3 -2 0 -1 -1 -2 -4 -1 0 -0 -0 -1 -2 -3 -3 -2 -1 -3 -1 0 -0 -1 -0 0 -1 -1 -1 0
-1 1 -2 -4 -4 -1 -0 1 3 4 4 1 3 3 1 0 -2 -1 -2 -1 -1 -2 -1 -2 -1 -1 -1 -3 -3 -2 -2 -2 -1 1 0 -0 -2 -0 -1 -2 -3 -5 -2
0 -1 3 -2 -2 -3 -2 -1 -0 0 3 4 2 2 2 0 -1 -2 -1 -1 -2 -2 -1 -1 -1 -2 -4 -4 -2 -2 -1 0 0 -1 -0 -0 -2 -1 -2 -0 2 1 -1
2 -1 -0 3 2 2 2 1 -1 -0 0 4 4 1 2 -1 0 -0 -2 -1 -1 -2 -3 -2 -2 -3 -3 -0 -0 0 2 1 -1 1 -1 -0 0 -1 2 1 -1 1 -2
1 -1 -2 1 5 5 0 -0 2 1 0 1 3 4 0 -0 -0 -0 -1 -1 -0 -1 -1 -2 -0 -4 -3 -0 1 -1 2 1 -1 0 -1 0 -1 2 1 -1 1 -1 1
1 0 -2 -1 2 2 -0 -1 -1 0 0 1 2 3 3 1 1 1 0 -1 -0 1 0 -1 -0 -1 -2 -0 1 -1 -0 1 -0 0 1 0 -1 -1 0 -1 -1 -0 0
4 1 -0 -1 -3 0 2 2 1 -1 1 1 0 1 4 3 2 2 2 1 1 1 1 -1 0 -0 -2 -1 1 0 1 1 1 0 1 2 -0 -2 -3 -2 -1 -0 2
1 4 2 -1 -6 -4 -3 0 2 3 2 2 4 2 3 4 4 3 2 2 2 2 1 2 2 -0 -1 -0 2 -1 -1 1 0 0 0 1 1 2 1 -2 -2 1 -1
1 1 2 2 1 -3 2 8 5 -1 -1 0 0 2 1 1 1 1 1 2 2 3 3 2 2 2 0 1 -0 -0 -1 -0 -1 0 -2 -2 -0 1 -1 2 -1 -0 -1
-2 2 0 1 6 5 5 4 2 4 10 5 -2 0 0 3 3 2 1 2 3 3 1 2 0 2 1 2 3 2 -1 -0 -0 0 -1 -0 -0 1 1 2 1 1 0
6 7 5 3 1 -1 1 5 3 4 3 2 4 5 2 -1 -1 1 2 4 2 2 3 4 4 2 1 -1 -2 -0 2 0 -1 -1 -1 0 0 -2 -1 -2 -1 2 2
-3 -0 2 4 2 3 0 2 3 4 5 6 4 1 0 3 1 1 1 0 3 2 4 4 6 3 3 -1 0 -1 -2 1 1 2 0 -0 -1 -1 -1 -2 -1 -1 1
-4 -7 -0 -3 2 -0 -2 -2 -5 -0 1 -1 1 6 4 -0 2 2 -0 2 0 2 1 2 1 1 2 -1 -3 -2 -1 2 2 0 -0 2 1 0 2 3 1 1 -1
-3 -3 -0 -2 -1 2 2 0 5 1 0 -2 1 -2 2 5 2 2 4 2 1 2 3 3 0 1 1 0 -1 0 -1 -2 1 2 3 -0 -2 0 0 3 5 3 -2
-1 -1 -3 -1 5 4 1 -3 5 -2 4 4 -4 2 -5 -0 6 8 3 3 2 5 3 2 0 2 2 0 -1 -3 -1 -1 0 -3 -1 5 3 1 1 -4 4 9 5
0 -1 -2 -0 -2 5 14 4 2 3 1 -5 1 2 2 -2 -5 1 5 0 1 0 3 0 3 4 3 2 -0 -2 -2 -2 -2 1 -2 -2 3 3 2 -2 2 1 8
-1 -1 1 2 4 5 2 1 6 -3 -1 -2 -0 -6 -4 -2 1 -8 -4 1 -0 -2 0 -2 2 2 3 4 1 -0 2 -1 -4 -1 -2 -8 -6 -0 2 2 0 -1 1
2 2 2 3 2 2 5 4 4 5 7 5 6 1 2 -1 -2 -2 3 2 -1 -1 2 -0 2 1 1 5 3 3 0 4 6 -5 -6 5 8 -0 -6 -1 -3 6 4
2 2 1 2 2 4 4 2 4 6 4 4 8 4 6 1 2 3 -0 -1 3 4 -2 4 4 1 -1 1 2 3 4 3 0 20 -11 -12 -3 3 -1 -2 -3 -6 -5
3 2 2 0 2 0 1 3 4 4 4 5 4 8 1 2 1 2 1 -1 -4 -0 3 -4 -3 2 5 3 2 7 -10 -2 -8 -11 16 -19 -6 -6 6 0 -4 2 -3
2 3 1 1 -0 2 0 1 4 3 1 3 3 3 5 2 1 1 1 3 0 -1 -2 1 -1 0 4 0 10 -6 -42 -18 -48 -9 8 -10 -8 -4 1 -11 -14 -3 -2
-1 -1 -0 -1 -1 -1 -0 -2 0 0 3 2 2 2 4 3 4 3 1 -1 3 -1 -1 1 2 -1 -0 -5 1 5 12 7 -19 3 8 9 -11 5 -14 -8 -11 -9 0
-2 -2 -3 -0 0 2 0 3 1 1 -3 0 7 3 1 -1 5 3 4 1 0 4 1 1 3 5 2 5 -3 -2 0 -11 7 -1 -10 -1 -4 1 0 -5 -1 -13 -2
-1 -1 -2 -2 -1 -1 3 3 2 -5 3 -8 4 -1 0 -2 -0 7 -0 3 -1 3 4 0 2 4 7 -2 7 15 -2 1 -3 2 -5 -10 2 -0 0 -8 -2 3 -6
-4 -4 4 -7 -4 4 -0 -5 2 -3 -15 -11 2 6 -3 3 1 3 2 1 -2 -1 2 2 -1 -1 3 4 4 7 9 6 2 0 -3 -5 8 -5 -4 -9 2 3 0
3 1 -3 1 -4 -1 -1 -5 -5 -17 -7 -2 2 -6 10 -2 2 -5 8 2 -0 -1 1 3 2 0 -2 1 3 2 0 5 -4 3 0 -1 -6 -8 -6 3 0 -2 -2
Height
1508 1510 1512 1514 1517 1520 1522 1524 1525 1526 1527 1527 1527 1528 1528 1530 1531 1533 1534 1535 1536 1538 1541 1542 1544 1545 1547 1548 1550 1550 1551 1551 1551 1550 1550 1551 1551 1552 1553 1553 1554 1556 1556
1507 1510 1512 1515 1518 1520 1522 1525 1527 1528 1528 1529 1529 1529 1529 1530 1532 1533 1534 1535 1536 1538 1540 1542 1544 1545 1547 1548 1550 1550 1551 1551 1551 1550 1550 1551 1552 1553 1554 1554 1555 1556 1557
1508 1511 1513 1514 1517 1520 1522 1525 1527 1529 1530 1530 1530 1530 1531 1531 1532 1533 1534 1535 1537 1538 1540 1541 1543 1545 1547 1548 1549 1550 1550 1551 1551 1550 1551 1551 1552 1553 1554 1555 1556 1557 1558
1510 1512 1515 1516 1517 1519 1522 1524 1526 1528 1530 1531 1531 1531 1532 1532 1533 1533 1534 1535 1536 1537 1539 1541 1543 1545 1546 1548 1548 1549 1549 1550 1550 1551 1551 1552 1553 1553 1554 1555 1557 1557 1558
1511 1511 1514 1517 1519 1520 1522 1524 1526 1528 1529 1531 1531 1531 1532 1532 1533 1533 1534 1535 1536 1536 1538 1540 1541 1543 1545 1547 1547 1548 1549 1550 1551 1551 1551 1552 1553 1553 1555 1556 1557 1558 1560
1512 1512 1513 1516 1519 1520 1521 1523 1525 1527 1529 1530 1531 1531 1531 1532 1533 1533 1534 1534 1535 1536 1537 1538 1540 1542 1544 1546 1547 1547 1548 1549 1550 1551 1551 1552 1553 1554 1555 1557 1558 1559 1560
1513 1513 1513 1514 1516 1519 1520 1522 1523 1525 1527 1529 1530 1531 1531 1531 1532 1533 1534 1534 1535 1536 1536 1537 1539 1541 1543 1544 1545 1546 1548 1549 1550 1551 1551 1552 1552 1553 1555 1557 1557 1558 1560
1514 1514 1514 1514 1515 1517 1518 1520 1522 1523 1524 1526 1528 1529 1530 1531 1532 1533 1534 1534 1535 1536 1536 1537 1539 1540 1542 1544 1545 1546 1547 1548 1549 1550 1551 1552 1552 1553 1554 1555 1557 1558 1559
1514 1514 1514 1514 1514 1515 1516 1517 1517 1519 1522 1524 1525 1526 1528 1529 1530 1532 1532 1533 1534 1536 1537 1538 1539 1540 1541 1543 1544 1545 1545 1546 1548 1549 1550 1551 1552 1553 1554 1554 1555 1557 1559
1515 1514 1513 1513 1513 1513 1514 1515 1516 1517 1518 1519 1521 1523 1525 1526 1527 1528 1530 1531 1533 1534 1535 1536 1538 1539 1540 1542 1543 1544 1544 1545 1546 1547 1548 1549 1550 1552 1553 1554 1554 1555 1557
1511 1512 1511 1511 1512 1512 1513 1514 1514 1515 1515 1516 1517 1519 1520 1522 1524 1525 1526 1528 1530 1531 1533 1534 1536 1537 1539 1539 1541 1542 1542 1542 1543 1544 1545 1547 1548 1550 1551 1552 1553 1554 1556
1506 1507 1508 1509 1509 1510 1511 1512 1512 1513 1513 1513 1514 1514 1516 1518 1519 1521 1522 1525 1526 1528 1529 1531 1533 1535 1535 1536 1537 1538 1539 1540 1540 1541 1542 1544 1545 1547 1548 1549 1551 1552 1554
1504 1504 1504 1503 1505 1506 1507 1509 1510 1509 1509 1509 1511 1511 1512 1513 1514 1515 1517 1520 1521 1523 1525 1527 1528 1529 1531 1532 1533 1534 1536 1537 1537 1538 1539 1541 1542 1544 1545 1546 1547 1548 1550
1500 1500 1499 1499 1500 1501 1502 1503 1504 1505 1506 1506 1506 1507 1508 1509 1509 1510 1512 1514 1517 1519 1520 1522 1523 1524 1525 1527 1529 1531 1532 1534 1535 1535 1536 1538 1539 1540 1542 1543 1545 1545 1546
1495 1494 1493 1493 1494 1496 1497 1499 1500 1501 1502 1502 1502 1502 1504 1505 1506 1507 1508 1509 1511 1514 1515 1516 1518 1519 1520 1521 1524 1526 1527 1529 1531 1531 1533 1535 1535 1536 1538 1539 1541 1543 1544
1489 1488 1488 1487 1487 1490 1493 1495 1497 1499 1499 1499 1499 1499 1499 1501 1502 1503 1504 1505 1506 1507 1509 1511 1512 1513 1514 1515 1516 1519 1521 1523 1525 1526 1528 1531 1532 1533 1534 1535 1537 1539 1541
1484 1483 1482 1481 1482 1484 1486 1490 1492 1494 1494 1494 1495 1494 1495 1497 1498 1500 1501 1500 1501 1502 1503 1505 1505 1506 1507 1508 1509 1511 1514 1516 1517 1519 1522 1525 1528 1529 1530 1531 1533 1534 1535
1483 1480 1479 1478 1479 1480 1481 1482 1485 1487 1490 1488 1489 1490 1490 1492 1493 1493 1494 1495 1495 1496 1497 1498 1499 1500 1500 1501 1503 1505 1507 1509 1511 1511 1514 1518 1521 1523 1524 1525 1527 1529 1529
1483 1481 1478 1477 1478 1478 1478 1479 1481 1483 1484 1485 1485 1486 1486 1487 1487 1487 1488 1488 1488 1488 1490 1491 1492 1492 1493 1494 1497 1501 1504 1505 1508 1510 1502 1511 1514 1517 1517 1518 1521 1522 1524
1484 1482 1479 1478 1477 1477 1478 1479 1480 1481 1482 1483 1483 1482 1481 1482 1483 1482 1482 1482 1482 1482 1483 1484 1484 1485 1485 1482 1487 1493 1495 1498 1501 1505 1498 1508 1507 1509 1509 1509 1512 1514 1515
1487 1484 1481 1479 1479 1479 1478 1478 1478 1478 1479 1480 1480 1480 1478 1477 1477 1477 1476 1476 1475 1476 1477 1478 1477 1478 1478 1480 1483 1481 1485 1489 1488 1491 1494 1497 1499 1499 1501 1502 1503 1506 1506
1488 1485 1483 1482 1480 1479 1479 1477 1477 1476 1477 1478 1478 1476 1475 1473 1472 1471 1470 1469 1469 1469 1470 1470 1470 1470 1472 1475 1475 1477 1470 1482 1484 1480 1478 1480 1487 1490 1492 1494 1494 1495 1498
1490 1487 1485 1483 1482 1480 1479 1480 1478 1476 1474 1476 1476 1473 1472 1470 1469 1466 1465 1463 1462 1462 1461 1461 1461 1461 1463 1466 1468 1470 1470 1469 1471 1470 1469 1469 1474 1478 1483 1486 1486 1487 1489
1492 1489 1487 1484 1483 1480 1479 1477 1477 1476 1469 1475 1473 1471 1468 1467 1466 1461 1459 1457 1456 1456 1454 1453 1453 1453 1453 1455 1460 1459 1461 1462 1461 1461 1459 1461 1463 1462 1470 1474 1476 1477 1481
1494 1492 1488 1486 1483 1480 1478 1475 1473 1471 1473 1477 1473 1467 1463 1462 1462 1458 1455 1452 1451 1450 1448 1446 1445 1445 1446 1446 1448 1450 1451 1450 1452 1454 1453 1455 1454 1455 1458 1460 1462 1466 1470
1491 1490 1489 1487 1485 1483 1478 1475 1473 1477 1475 1476 1468 1464 1459 1457 1457 1454 1451 1448 1447 1446 1444 1441 1440 1439 1439 1438 1437 1439 1440 1441 1442 1444 1445 1448 1447 1448 1450 1452 1452 1455 1460